TimeEDT,TemperatureF,Dew PointF,Humidity,Sea Level PressureIn,VisibilityMPH,Wind Direction,Wind SpeedMPH,Gust SpeedMPH,PrecipitationIn,Events,Conditions,WindDirDegrees,DateUTC
12:54 AM,66.9,54.0,63,29.73,10.0,Variable,6.9,-,N/A,,Clear,0,2013-06-14 04:54:00
1:54 AM,66.9,53.1,61,29.73,10.0,Variable,5.8,-,N/A,,Clear,0,2013-06-14 05:54:00
2:54 AM,66.0,53.1,63,29.75,10.0,NW,4.6,-,N/A,,Clear,310,2013-06-14 06:54:00
3:54 AM,64.9,52.0,63,29.75,10.0,Variable,3.5,-,N/A,,Clear,0,2013-06-14 07:54:00
4:54 AM,64.0,52.0,65,29.77,10.0,Variable,3.5,-,N/A,,Clear,0,2013-06-14 08:54:00
5:54 AM,64.0,52.0,65,29.78,10.0,Calm,Calm,-,N/A,,Clear,0,2013-06-14 09:54:00
6:54 AM,64.9,53.1,65,29.80,10.0,Variable,5.8,-,N/A,,Clear,0,2013-06-14 10:54:00
7:54 AM,69.1,55.0,61,29.82,10.0,Calm,Calm,-,N/A,,Clear,0,2013-06-14 11:54:00
8:12 AM,69.8,53.6,56,29.86,10.0,Variable,5.8,-,N/A,,Partly Cloudy,0,2013-06-14 12:12:00
8:54 AM,70.0,53.1,55,29.86,10.0,NW,8.1,-,N/A,,Partly Cloudy,320,2013-06-14 12:54:00
9:54 AM,72.0,53.1,51,29.88,10.0,NNW,8.1,-,N/A,,Clear,330,2013-06-14 13:54:00
10:54 AM,72.0,53.1,51,29.90,10.0,North,9.2,-,N/A,,Clear,10,2013-06-14 14:54:00
11:54 AM,75.0,53.1,46,29.91,10.0,North,8.1,-,N/A,,Clear,350,2013-06-14 15:54:00
12:54 PM,75.9,54.0,46,29.92,10.0,North,9.2,18.4,N/A,,Partly Cloudy,350,2013-06-14 16:54:00
1:54 PM,75.9,53.1,45,29.92,10.0,NNE,8.1,-,N/A,,Mostly Cloudy,20,2013-06-14 17:54:00
2:54 PM,77.0,53.1,43,29.93,10.0,Variable,5.8,-,N/A,,Scattered Clouds,0,2013-06-14 18:54:00
3:54 PM,75.9,53.1,45,29.94,10.0,NNE,8.1,-,N/A,,Mostly Cloudy,20,2013-06-14 19:54:00
4:54 PM,79.0,54.0,42,29.93,10.0,Variable,3.5,-,N/A,,Scattered Clouds,0,2013-06-14 20:54:00
5:54 PM,75.9,54.0,46,29.94,10.0,NNW,3.5,-,N/A,,Clear,330,2013-06-14 21:54:00
6:54 PM,78.1,55.0,45,29.94,10.0,North,3.5,-,N/A,,Clear,10,2013-06-14 22:54:00
7:54 PM,73.0,57.0,57,29.96,10.0,Calm,Calm,-,N/A,,Clear,0,2013-06-14 23:54:00
8:54 PM,64.0,57.9,80,29.98,10.0,Calm,Calm,-,N/A,,Clear,0,2013-06-15 00:54:00
9:54 PM,62.1,57.0,84,30.00,10.0,Calm,Calm,-,N/A,,Clear,0,2013-06-15 01:54:00
10:54 PM,62.1,57.9,86,30.01,10.0,Calm,Calm,-,N/A,,Clear,0,2013-06-15 02:54:00
11:54 PM,60.1,57.0,90,30.03,10.0,Calm,Calm,-,N/A,,Clear,0,2013-06-15 03:54:00